EW8090 Rincon GA US current weather conditions

sailwx.info

Wind from 333

Air temperature 15.0° C
Dewpoint 4.4° C

Last reported at 2020-Jan-28 22:06 UTC.
Time now 2020-Jan-28 23:02 UTC

Location: N 32°13' W 081°15'.
View on Google Maps.

See reports from other nearby stations

  
Tides and Currents Weather Stations Pressure Air Temp Water Temp Dewpoint Dewpoint Depression Visibility Wind Speed Wind Dir Waves Ship Positions
date/time (UTC)wind fromknots sea level pressurealtimeterstation pressurevisibilityair tempwater tempwave heightnotes
2020-Jan-28 22:06 333 15.0
2020-Jan-28 22:00 333 15.6
2020-Jan-28 21:54 331 0 gusting 2 15.6
2020-Jan-28 21:48 327 0 gusting 2 15.6
2020-Jan-28 21:42 331 16.1
2020-Jan-28 21:36 333 16.1
2020-Jan-28 21:30 323 16.1
2020-Jan-28 21:24 323 0 gusting 1 16.1
2020-Jan-28 21:18 329 1 gusting 4 16.1
2020-Jan-28 21:12 341 0 gusting 4 16.1
2020-Jan-28 21:06 355 16.1
2020-Jan-28 21:00 354 16.7
2020-Jan-28 20:54 355 16.7
2020-Jan-28 20:48 355 16.7
2020-Jan-28 20:42 354 0 gusting 2 16.7
2020-Jan-28 20:36 354 0 gusting 2 16.7
2020-Jan-28 20:30 344 0 gusting 3 16.7
2020-Jan-28 20:24 322 0 gusting 3 16.7
2020-Jan-28 20:18 313 0 gusting 2 16.7
2020-Jan-28 20:12 309 16.7
2020-Jan-28 20:06 292 1 gusting 5 16.7
2020-Jan-28 20:00 240 1 gusting 5 16.7
2020-Jan-28 19:54 335 0 gusting 4 17.2
2020-Jan-28 19:48 016 1 gusting 3 17.2
2020-Jan-28 19:42 326 1 gusting 4 16.7
2020-Jan-28 19:36 316 1 gusting 5 16.7
2020-Jan-28 19:30 356 1 gusting 4 16.7
2020-Jan-28 19:24 008 1 gusting 4 16.7
2020-Jan-28 19:18 344 1 gusting 5 16.7
2020-Jan-28 19:12 351 0 gusting 5 16.7
2020-Jan-28 19:06 337 1 gusting 4 16.7
2020-Jan-28 19:00 302 1 gusting 5 16.7
2020-Jan-28 18:54 315 0 gusting 5 16.7
2020-Jan-28 18:48 327 0 gusting 2 16.7
2020-Jan-28 18:42 313 0 gusting 3 16.7
2020-Jan-28 18:36 236 0 gusting 3 16.7
2020-Jan-28 18:30 213 1 gusting 6 16.1
2020-Jan-28 18:24 259 0 gusting 6 16.7
2020-Jan-28 18:18 342 1 gusting 6 16.1
2020-Jan-28 18:12 346 1 gusting 6 16.1
2020-Jan-28 18:06 345 1 gusting 5 16.1
2020-Jan-28 18:00 025 0 gusting 4 16.1
2020-Jan-28 17:54 080 1 gusting 3 15.6
2020-Jan-28 17:48 352 1 gusting 4 16.1
2020-Jan-28 17:42 337 1 gusting 4 16.1
2020-Jan-28 17:36 335 0 gusting 3 16.1
2020-Jan-28 17:30 170 0 gusting 3 15.6
2020-Jan-28 17:24 118 0 gusting 5 15.6
2020-Jan-28 17:18 056 1 gusting 5 15.6
2020-Jan-28 17:12 033 1 gusting 3 15.6
2020-Jan-28 17:06 198 0 gusting 4 15.0
2020-Jan-28 17:00 287 0 gusting 4 15.0
2020-Jan-28 16:54 290 0 gusting 3 15.0
2020-Jan-28 16:48 321 0 gusting 3 15.0
2020-Jan-28 16:42 319 1 gusting 4 15.0
2020-Jan-28 16:36 348 1 gusting 5 14.4
2020-Jan-28 16:30 077 1 gusting 6 15.0
2020-Jan-28 16:24 070 0 gusting 6 14.4
2020-Jan-28 16:18 063 0 gusting 4 14.4
2020-Jan-28 16:12 082 1 gusting 4 14.4
2020-Jan-28 16:06 057 0 gusting 4 13.9
2020-Jan-28 16:00 003 1 gusting 4 13.9
2020-Jan-28 15:54 009 1 gusting 3 13.3
2020-Jan-28 15:48 008 0 gusting 3 13.3
2020-Jan-28 15:42 006 0 gusting 2 12.8
2020-Jan-28 15:36 006 0 gusting 2 12.8
2020-Jan-28 15:30 354 0 gusting 3 12.2
2020-Jan-28 15:24 327 0 gusting 2 11.7
2020-Jan-28 15:18 328 1 gusting 4 11.1
2020-Jan-28 15:12 330 0 gusting 4 11.1
2020-Jan-28 15:06 333 0 gusting 3 11.1
2020-Jan-28 15:00 325 0 gusting 3 10.6
2020-Jan-28 14:54 315 0 gusting 3 10.0
2020-Jan-28 14:48 310 0 gusting 3 9.4
2020-Jan-28 14:42 351 0 gusting 4 8.9
2020-Jan-28 14:36 003 0 gusting 2 8.9
2020-Jan-28 14:30 351 0 gusting 2 8.9
2020-Jan-28 14:24 350 8.3
2020-Jan-28 14:18 350 8.3
2020-Jan-28 14:12 350 7.8
2020-Jan-28 14:06 350 7.2
2020-Jan-28 14:00 350 6.7
2020-Jan-28 13:54 351 5.6
2020-Jan-28 13:48 351 5.6
2020-Jan-28 13:42 351 5.0
2020-Jan-28 13:36 4.4
2020-Jan-28 13:30 3.9
2020-Jan-28 13:24 3.9
2020-Jan-28 13:18 3.3
2020-Jan-28 13:12 3.3
2020-Jan-28 13:06 3.3
2020-Jan-28 13:00 3.3
2020-Jan-28 12:54 3.3
2020-Jan-28 12:48 3.3
2020-Jan-28 12:42 3.3
2020-Jan-28 12:36 3.3
2020-Jan-28 12:30 3.3
2020-Jan-28 12:24 3.3
2020-Jan-28 12:18 3.3
2020-Jan-28 12:12 3.3
2020-Jan-28 12:06 3.3
2020-Jan-28 12:00 3.9
2020-Jan-28 11:54 3.9
2020-Jan-28 11:48 3.9
2020-Jan-28 11:42 3.9
2020-Jan-28 11:36 3.9
2020-Jan-28 11:30 3.9
2020-Jan-28 11:24 3.9
2020-Jan-28 11:18 3.9
2020-Jan-28 11:12 3.9
2020-Jan-28 11:06 3.9
2020-Jan-28 11:00 3.9
2020-Jan-28 10:54 3.9
2020-Jan-28 10:48 3.9
2020-Jan-28 10:42 4.4
2020-Jan-28 10:36 4.4
2020-Jan-28 10:30 4.4
2020-Jan-28 10:24 4.4
2020-Jan-28 10:18 4.4
2020-Jan-28 10:12 4.4
2020-Jan-28 10:06 4.4
2020-Jan-28 10:00 4.4
2020-Jan-28 09:54 4.4
2020-Jan-28 09:48 5.0
2020-Jan-28 09:42 5.0
2020-Jan-28 09:36 5.0
2020-Jan-28 09:30 5.0
2020-Jan-28 09:24 5.0
2020-Jan-28 09:18 5.0
2020-Jan-28 09:12 5.0
2020-Jan-28 09:06 5.0
2020-Jan-28 09:00 5.0
2020-Jan-28 08:54 5.0
2020-Jan-28 08:48 5.0
2020-Jan-28 08:42 5.0
2020-Jan-28 08:36 5.0
2020-Jan-28 08:30 5.6
2020-Jan-28 08:24 5.6
2020-Jan-28 08:18 5.6
2020-Jan-28 08:12 5.6
2020-Jan-28 08:06 5.6
2020-Jan-28 08:00 351 6.1
2020-Jan-28 07:54 351 6.1
2020-Jan-28 07:48 6.1
2020-Jan-28 07:42 6.1
2020-Jan-28 07:36 6.1
2020-Jan-28 07:30 6.1
2020-Jan-28 07:24 6.1
2020-Jan-28 07:18 6.1
2020-Jan-28 07:12 6.1
2020-Jan-28 07:06 6.7
2020-Jan-28 07:00 6.7
2020-Jan-28 06:54 6.7
2020-Jan-28 06:48 6.7
2020-Jan-28 06:42 6.7
2020-Jan-28 06:36 351 6.7
2020-Jan-28 06:30 351 6.7
2020-Jan-28 06:24 351 6.7
2020-Jan-28 06:18 351 6.7
2020-Jan-28 06:12 6.7
2020-Jan-28 06:06 6.7
2020-Jan-28 06:00 6.7
2020-Jan-28 05:54 6.7
2020-Jan-28 05:48 7.2
2020-Jan-28 05:42 7.2
2020-Jan-28 05:36 7.2
2020-Jan-28 05:30 7.2
2020-Jan-28 05:24 351 7.8
2020-Jan-28 05:18 351 7.8
2020-Jan-28 05:12 7.2
2020-Jan-28 05:06 7.2
2020-Jan-28 05:00 7.8
2020-Jan-28 04:54 7.8
2020-Jan-28 04:48 7.8
2020-Jan-28 04:42 7.8
2020-Jan-28 04:36 7.8
2020-Jan-28 04:30 7.8
2020-Jan-28 04:24 7.8
2020-Jan-28 04:18 7.8
2020-Jan-28 04:12 7.8
2020-Jan-28 04:06 7.8
2020-Jan-28 04:00 7.8
2020-Jan-28 03:54 7.8
2020-Jan-28 03:48 7.8
2020-Jan-28 03:42 7.8
2020-Jan-28 03:36 7.8
2020-Jan-28 03:30 7.8
2020-Jan-28 03:24 7.8
2020-Jan-28 03:18 8.3
2020-Jan-28 03:12 8.3
2020-Jan-28 03:06 8.3
2020-Jan-28 03:00 8.3
2020-Jan-28 02:54 8.3
2020-Jan-28 02:48 8.3
2020-Jan-28 02:42 8.9
2020-Jan-28 02:36 8.9
2020-Jan-28 02:30 8.9
2020-Jan-28 02:24 8.9
2020-Jan-28 02:18 9.4
2020-Jan-28 02:12 9.4
2020-Jan-28 02:06 10.0
2020-Jan-28 02:00 10.0
2020-Jan-28 01:54 10.6
2020-Jan-28 01:48 10.6
2020-Jan-28 01:42 11.1
2020-Jan-28 01:36 11.1
2020-Jan-28 01:30 11.7
2020-Jan-28 01:24 11.7
2020-Jan-28 01:18 11.7
2020-Jan-28 01:12 12.2
2020-Jan-28 01:06 12.2
2020-Jan-28 01:00 12.2
2020-Jan-28 00:54 12.2
2020-Jan-28 00:48 12.2
2020-Jan-28 00:42 12.2
2020-Jan-28 00:36 355 12.2
2020-Jan-28 00:30 355 12.8
2020-Jan-28 00:24 355 12.8
2020-Jan-28 00:18 355 0 gusting 3 12.8
2020-Jan-28 00:12 355 12.8
2020-Jan-28 00:06 355 12.8
2020-Jan-28 00:00 355 12.8
2020-Jan-27 23:54 300 0 gusting 3 12.8
2020-Jan-27 23:48 258 0 gusting 3 12.8
2020-Jan-27 23:42 298 1 gusting 4 12.8
2020-Jan-27 23:36 336 1 gusting 4 13.3
2020-Jan-27 23:30 346 0 gusting 2 13.3
2020-Jan-27 23:24 341 0 gusting 4 13.3
2020-Jan-27 23:18 254 0 gusting 4 13.3
2020-Jan-27 23:12 279 0 gusting 4 13.3
2020-Jan-27 23:06 335 13.3
2020-Jan-27 23:00 13.3
2020-Jan-27 22:54 335 13.3
2020-Jan-27 22:48 335 13.3
2020-Jan-27 22:42 334 13.3
2020-Jan-27 22:36 320 13.3
2020-Jan-27 22:30 289 13.3
2020-Jan-27 22:24 289 13.9
2020-Jan-27 22:18 289 13.9
2020-Jan-27 22:12 285 13.9
2020-Jan-27 22:06 285 13.9
2020-Jan-27 22:00 284 13.9
2020-Jan-27 21:54 283 13.9
2020-Jan-27 21:48 283 13.9
2020-Jan-27 21:42 316 13.9
2020-Jan-27 21:36 355 14.4
2020-Jan-27 21:30 355 14.4
2020-Jan-27 21:24 355 14.4
2020-Jan-27 21:18 355 14.4
2020-Jan-27 21:12 355 14.4
2020-Jan-27 21:06 336 0 gusting 4 14.4
2020-Jan-27 21:00 244 0 gusting 4 14.4
2020-Jan-27 20:54 207 0 gusting 6 15.0
2020-Jan-27 20:48 204 1 gusting 6 15.0
2020-Jan-27 20:42 234 0 gusting 5 15.0
2020-Jan-27 20:36 223 0 gusting 5 15.0
2020-Jan-27 20:30 008 0 gusting 3 15.0
2020-Jan-27 20:24 344 0 gusting 3 15.0
2020-Jan-27 20:18 308 1 gusting 6 14.4
2020-Jan-27 20:12 304 0 gusting 3 14.4
2020-Jan-27 20:06 295 0 gusting 3 15.0
2020-Jan-27 20:00 277 0 gusting 3 15.0
2020-Jan-27 19:54 224 0 gusting 6 15.0
2020-Jan-27 19:48 312 0 gusting 5 15.0
2020-Jan-27 19:42 315 0 gusting 4 15.0
2020-Jan-27 19:36 302 0 gusting 4 15.0
2020-Jan-27 19:30 293 1 gusting 4 15.0
2020-Jan-27 19:24 321 1 gusting 4 15.0
2020-Jan-27 19:18 320 1 gusting 4 15.6
2020-Jan-27 19:12 333 1 gusting 6 15.6
2020-Jan-27 19:06 319 2 gusting 7 15.6
2020-Jan-27 19:00 270 1 gusting 7 15.6
2020-Jan-27 18:54 270 0 gusting 3 15.6
2020-Jan-27 18:48 297 0 gusting 4 15.6
2020-Jan-27 18:42 297 0 gusting 6 15.6
2020-Jan-27 18:36 308 0 gusting 5 15.6
2020-Jan-27 18:30 306 1 gusting 5 15.0
2020-Jan-27 18:24 067 0 gusting 4 15.0
2020-Jan-27 18:18 029 0 gusting 4 15.0
2020-Jan-27 18:12 321 1 gusting 5 15.0
2020-Jan-27 18:06 266 1 gusting 6 15.0
2020-Jan-27 18:00 293 1 gusting 6 15.0
2020-Jan-27 17:54 304 1 gusting 5 14.4
2020-Jan-27 17:48 324 1 gusting 6 14.4
2020-Jan-27 17:42 324 1 gusting 5 14.4
2020-Jan-27 17:36 313 0 gusting 2 14.4
2020-Jan-27 17:30 337 0 gusting 5 14.4
2020-Jan-27 17:24 292 1 gusting 5 13.9
2020-Jan-27 17:18 278 0 gusting 3 13.9
2020-Jan-27 17:12 290 1 gusting 5 13.9
2020-Jan-27 17:06 282 0 gusting 4 13.9
2020-Jan-27 17:00 306 0 gusting 4 13.9
2020-Jan-27 16:54 326 0 gusting 3 13.9
2020-Jan-27 16:48 322 0 gusting 4 13.9
2020-Jan-27 16:42 319 1 gusting 4 13.9
2020-Jan-27 16:36 318 0 gusting 3 13.9
2020-Jan-27 16:30 328 0 gusting 3 13.9
2020-Jan-27 16:24 334 0 gusting 3 13.9
2020-Jan-27 16:18 332 1 gusting 4 13.9
2020-Jan-27 16:12 334 1 gusting 4 13.3
2020-Jan-27 16:06 295 0 gusting 3 13.3
2020-Jan-27 16:00 263 0 gusting 3 12.8
2020-Jan-27 15:54 269 0 gusting 3 12.8
2020-Jan-27 15:48 272 0 gusting 4 12.2
2020-Jan-27 15:42 322 0 gusting 4 12.2
2020-Jan-27 15:36 346 0 gusting 4 12.2
2020-Jan-27 15:18 043 1 gusting 3 11.7
2020-Jan-27 15:06 044 0 gusting 3 11.1
2020-Jan-27 15:00 045 0 gusting 3 11.1
2020-Jan-27 14:54 045 10.6
2020-Jan-27 14:48 045 10.6
2020-Jan-27 14:42 045 10.0
2020-Jan-27 14:36 9.4
2020-Jan-27 14:30 045 9.4
2020-Jan-27 14:24 045 8.9
2020-Jan-27 14:18 045 8.9
2020-Jan-27 14:12 045 8.9
2020-Jan-27 14:06 8.9
2020-Jan-27 14:00 321 8.9
2020-Jan-27 13:54 321 8.9
2020-Jan-27 13:48 321 8.3
2020-Jan-27 13:42 8.3
2020-Jan-27 13:36 8.3
2020-Jan-27 13:30 8.3
2020-Jan-27 13:24 8.3
2020-Jan-27 13:18 8.3
2020-Jan-27 13:12 7.8
2020-Jan-27 13:06 7.8
2020-Jan-27 13:00 7.8
2020-Jan-27 12:54 7.8
2020-Jan-27 12:48 7.8
2020-Jan-27 12:42 7.8
2020-Jan-27 12:36 7.8
2020-Jan-27 12:30 7.8
2020-Jan-27 12:24 7.8
2020-Jan-27 12:18 7.8
2020-Jan-27 12:12 7.8
2020-Jan-27 12:06 7.8
2020-Jan-27 12:00 7.8
2020-Jan-27 11:54 7.8
2020-Jan-27 11:48 7.8
2020-Jan-27 11:42 7.8
2020-Jan-27 11:36 7.8
2020-Jan-27 11:30 7.8
2020-Jan-27 11:24 7.8
2020-Jan-27 11:18 7.8
2020-Jan-27 11:12 7.8
2020-Jan-27 11:06 7.8
2020-Jan-27 11:00 7.8
2020-Jan-27 10:54 7.8
2020-Jan-27 10:48 321 7.8
2020-Jan-27 10:42 321 8.3
2020-Jan-27 10:36 321 8.3
2020-Jan-27 10:30 321 8.3
2020-Jan-27 10:24 321 8.3
2020-Jan-27 10:18 8.3
2020-Jan-27 10:12 8.3
2020-Jan-27 10:06 8.3
2020-Jan-27 10:00 8.3
2020-Jan-27 09:54 8.3
2020-Jan-27 09:48 8.3
2020-Jan-27 09:42 8.3
2020-Jan-27 09:36 8.9
2020-Jan-27 09:30 8.9
2020-Jan-27 09:24 8.9
2020-Jan-27 09:18 321 8.9
2020-Jan-27 09:12 9.4
2020-Jan-27 09:06 9.4
2020-Jan-27 09:00 321 9.4
2020-Jan-27 08:54 321 9.4
2020-Jan-27 08:48 9.4
2020-Jan-27 08:42 9.4
2020-Jan-27 08:36 9.4
2020-Jan-27 08:30 10.0
2020-Jan-27 08:24 9.4
2020-Jan-27 08:18 9.4